sat.trackr.live / text

‹ back to catalog

STARLINK-36591

NORAD 67576 · 2026-016R

PAYLOAD ACTIVE UNKNOWN

§ Identity

Operator
Country
US
Launch date
2026-01-25
Launch site
AFWTR
Launch vehicle
Mass (kg)
RCS (m²)

Purposes: comms

External: N2YO · Heavens-Above · Gunter

§ Orbital elements

Epoch: 2026-09-19T22:14:33.789408Z

Period
93.91 min
Inclination
97.2848°
Eccentricity
0.0001304
Mean motion
15.33450375 rev/d
Perigee alt
464.6 km
Apogee alt
466.4 km
Semi-major
6,843.7 km
B*
3.8297e-4
RAAN
321.6148°
Arg perigee
99.9391°
Mean anomaly
260.1999°
Rev number
3,663

§ Raw data

STARLINK-365911 67576U 26016R   26262.92677997  .00012311  00000+0  38297-3 0  99992 67576  97.2848 321.6148 0001304  99.9391 260.1999 15.33450375 36634

JSON: /api/v1/satellites/67576 · /tle

For live sub-satellite position, see the globe view (requires WebGL).

§ Visibility from observer

Set your observer location to see the next 7 days of passes ≥ 10°. The values pass through the URL so the page stays shareable.

No JS? Fill the form by hand. The geolocation button needs JavaScript.